Total_Precipitation_Accumulation
0.40 0.23 0.26 0.24 0.21 0.21 0.23 0.28 0.29 0.31 0.28 0.24 0.24 0.27 0.33 0.27 0.22 0.19 0.19 0.20 0.24 0.34 0.42 0.42 0.44 0.52 0.60 0.58 0.50 0.43 0.44 0.50 0.58 0.65 0.71 0.74 0.77 0.87 1.05 1.14 1.21 1.15 1.08
0.45 0.25 0.27 0.25 0.25 0.24 0.22 0.25 0.29 0.29 0.28 0.24 0.21 0.26 0.35 0.28 0.24 0.21 0.21 0.24 0.28 0.33 0.36 0.36 0.41 0.46 0.44 0.42 0.41 0.39 0.39 0.46 0.63 0.80 0.95 0.93 0.96 1.02 1.17 1.32 1.50 1.51 1.20
0.58 0.41 0.30 0.27 0.25 0.25 0.24 0.26 0.27 0.27 0.30 0.28 0.22 0.21 0.22 0.19 0.18 0.18 0.19 0.23 0.32 0.37 0.36 0.34 0.37 0.36 0.34 0.34 0.35 0.38 0.42 0.52 0.76 1.07 1.44 1.61 1.39 1.33 1.34 1.35 1.37 1.25 1.30
0.53 0.51 0.37 0.34 0.29 0.25 0.26 0.29 0.30 0.30 0.29 0.26 0.23 0.21 0.20 0.19 0.20 0.21 0.22 0.25 0.34 0.42 0.42 0.37 0.37 0.36 0.33 0.33 0.34 0.39 0.46 0.59 0.91 1.25 1.93 2.03 1.96 1.96 1.57 1.33 1.23 1.16 1.38
0.46 0.47 0.46 0.38 0.33 0.30 0.29 0.32 0.34 0.35 0.32 0.32 0.31 0.29 0.28 0.25 0.24 0.29 0.34 0.37 0.40 0.44 0.46 0.44 0.43 0.43 0.37 0.34 0.35 0.42 0.51 0.67 1.06 1.44 1.95 2.47 2.84 2.48 1.89 1.52 1.35 1.28 1.42
0.51 0.51 0.48 0.43 0.42 0.42 0.41 0.41 0.40 0.39 0.37 0.38 0.39 0.38 0.37 0.38 0.37 0.42 0.49 0.53 0.53 0.54 0.57 0.56 0.55 0.49 0.41 0.38 0.40 0.46 0.59 0.79 1.02 1.39 2.00 2.69 2.69 2.44 2.06 1.81 1.57 1.49 1.48
0.55 0.59 0.49 0.52 0.52 0.53 0.55 0.52 0.50 0.46 0.45 0.45 0.45 0.43 0.44 0.49 0.52 0.54 0.61 0.63 0.63 0.66 0.67 0.63 0.54 0.46 0.42 0.41 0.45 0.52 0.66 0.84 1.03 1.66 2.19 2.54 2.41 2.22 2.10 1.99 1.85 1.71 1.60
0.57 0.56 0.57 0.56 0.59 0.60 0.65 0.71 0.68 0.61 0.58 0.56 0.55 0.51 0.46 0.45 0.51 0.62 0.68 0.69 0.68 0.67 0.64 0.60 0.55 0.49 0.48 0.47 0.49 0.60 0.70 0.72 0.83 1.46 2.01 2.17 1.92 1.97 2.11 1.98 1.89 1.75 1.63
0.70 0.70 0.78 0.81 0.82 0.84 0.87 0.88 0.88 0.80 0.73 0.68 0.63 0.56 0.50 0.50 0.54 0.62 0.76 0.79 0.75 0.68 0.63 0.59 0.57 0.52 0.51 0.49 0.49 0.57 0.64 0.75 0.82 1.17 1.72 2.13 1.68 1.82 2.13 2.02 1.83 1.78 1.68
1.17 1.16 1.19 1.22 1.18 1.07 1.01 1.03 1.00 0.92 0.85 0.77 0.67 0.61 0.62 0.64 0.73 0.83 0.77 0.78 0.78 0.75 0.70 0.70 0.64 0.56 0.57 0.54 0.55 0.60 0.67 0.68 0.68 1.05 1.64 1.74 1.64 1.99 2.28 2.09 1.87 1.83 1.68
1.81 1.76 1.63 1.58 1.45 1.43 1.33 1.13 1.19 1.12 1.07 0.99 0.89 0.79 0.81 0.90 1.09 1.18 0.98 1.01 0.97 0.95 0.92 0.91 0.86 0.80 0.74 0.67 0.70 0.75 0.75 0.66 0.83 1.21 1.81 1.91 2.09 2.28 2.48 2.35 2.13 2.00 1.88
2.29 2.18 1.91 1.97 1.93 1.75 1.60 1.58 1.58 1.42 1.41 1.40 1.40 1.20 1.24 1.57 1.70 1.49 1.50 1.43 1.41 1.35 1.22 1.17 1.13 1.01 0.89 0.85 0.98 1.02 0.78 0.77 0.95 1.23 1.59 1.88 2.15 2.45 2.57 2.42 2.26 2.14 2.13
2.31 2.13 2.20 2.39 2.29 2.27 2.36 2.28 2.09 2.03 1.99 1.86 1.91 1.74 1.80 1.83 1.74 1.75 1.86 1.80 1.73 1.66 1.64 1.63 1.44 1.22 1.24 1.31 1.31 1.17 1.04 1.07 1.08 1.24 1.55 1.85 2.11 2.54 2.74 2.56 2.38 2.33 2.33
2.58 2.33 2.36 2.38 2.42 2.56 2.64 2.66 2.65 2.58 2.51 2.36 2.31 2.07 2.19 2.25 2.26 2.22 2.35 2.34 2.31 2.31 2.33 2.22 2.03 1.85 1.67 1.62 1.55 1.51 1.39 1.32 1.43 1.63 1.83 1.86 2.02 2.41 2.73 2.74 2.56 2.46 2.41
3.16 2.90 2.75 2.83 2.71 2.68 2.89 2.99 2.80 2.95 2.90 2.94 2.88 2.58 2.59 2.63 2.64 2.79 2.75 2.83 2.73 2.87 2.83 2.63 2.36 2.23 2.08 1.81 1.67 1.67 1.68 1.65 1.71 1.78 1.93 2.00 2.03 2.27 2.65 2.88 2.80 2.67 2.71
3.59 3.40 3.12 3.02 3.05 2.95 3.10 3.30 3.20 3.05 3.16 3.20 3.24 3.05 3.01 3.05 3.10 3.12 3.13 3.16 2.96 2.92 2.96 2.84 2.56 2.40 2.26 2.03 1.75 1.67 1.69 1.87 1.89 1.82 1.98 2.09 2.03 2.09 2.41 2.84 3.07 3.19 3.28
3.75 3.50 3.42 3.21 3.44 3.59 3.79 3.73 3.69 3.67 3.69 3.64 3.58 3.58 3.47 3.43 3.51 3.41 3.50 3.53 3.36 3.23 3.19 3.13 3.01 2.69 2.50 2.38 2.22 2.06 1.94 1.95 2.09 2.20 2.21 2.28 2.31 2.27 2.42 2.68 2.97 3.21 3.36
3.67 3.68 3.79 3.55 3.61 3.85 3.89 3.85 3.95 4.13 4.18 4.08 3.94 3.96 3.85 3.87 3.96 4.06 3.88 3.65 3.52 3.41 3.39 3.51 3.31 2.99 2.87 2.87 2.73 2.39 2.10 2.14 2.24 2.29 2.31 2.38 2.55 2.46 2.50 2.48 2.62 2.88 3.14
3.59 3.59 3.80 3.98 3.82 4.01 4.13 4.18 4.36 4.51 4.65 4.55 4.42 4.31 4.28 4.28 4.21 4.34 4.23 4.01 3.83 3.71 3.67 3.42 3.42 3.31 3.29 3.20 2.78 2.54 2.23 2.15 2.21 2.18 2.23 2.32 2.54 2.64 2.66 2.44 2.52 2.84 3.05
3.67 3.74 3.84 4.18 4.19 4.47 4.57 4.42 4.54 4.61 4.73 4.75 4.78 4.72 4.81 4.83 4.66 4.61 4.42 4.26 4.17 4.06 3.92 3.74 3.72 3.67 3.45 3.28 2.82 2.60 2.39 2.17 2.13 2.14 2.13 2.21 2.27 2.30 2.40 2.44 2.48 2.42 2.66
3.91 4.04 4.04 4.18 4.44 4.60 4.76 4.75 4.91 4.90 4.88 5.04 5.26 5.24 5.37 5.39 5.15 5.05 4.90 4.75 4.49 4.22 4.08 3.98 3.81 3.67 3.40 3.28 3.13 2.84 2.43 2.11 2.10 2.07 2.00 2.07 2.11 2.07 2.15 2.24 2.42 2.37 2.27
4.05 4.19 4.40 4.55 4.59 4.72 5.17 5.56 5.87 6.17 6.18 6.12 6.22 6.23 6.03 5.89 5.78 5.56 5.49 5.21 4.84 4.55 4.23 3.99 3.80 3.53 3.27 3.25 3.29 3.36 2.89 2.45 1.97 1.69 1.73 1.76 1.76 1.79 1.90 2.02 2.09 2.14 2.08
3.84 4.07 4.28 4.60 4.99 5.48 6.09 6.49 6.77 7.10 7.20 6.95 6.70 6.48 6.19 5.99 5.84 5.46 5.23 5.12 4.84 4.38 4.08 3.90 3.71 3.49 3.26 3.16 3.14 3.39 3.17 2.75 2.26 1.92 1.69 1.57 1.60 1.73 1.80 1.93 1.97 1.93 1.84
3.40 3.75 4.15 4.52 5.16 6.04 6.71 7.12 7.46 7.56 7.57 7.42 7.14 6.67 6.13 5.75 5.41 5.08 4.81 4.54 4.30 3.97 3.74 3.50 3.40 3.35 3.26 3.06 3.02 2.87 2.68 2.52 2.51 2.24 1.93 1.75 1.69 1.72 1.69 1.65 1.68 1.74 1.77
3.15 3.50 3.95 4.39 5.08 5.78 6.42 6.99 7.44 7.58 7.52 7.30 6.85 6.27 5.64 5.14 4.70 4.28 4.02 3.79 3.56 3.31 3.09 2.90 2.87 2.96 3.00 2.92 2.88 2.83 2.71 2.59 2.48 2.32 2.15 2.06 2.00 1.86 1.72 1.64 1.60 1.60 1.58
2.75 3.09 3.55 4.00 4.60 5.24 5.67 6.22 6.57 6.75 6.63 6.22 5.68 5.07 4.66 4.32 3.98 3.58 3.28 3.07 2.81 2.60 2.43 2.35 2.30 2.34 2.48 2.55 2.59 2.59 2.58 2.66 2.62 2.58 2.39 2.26 2.20 2.05 1.89 1.76 1.67 1.62 1.56